一网星座-0599星 (ONEWEB-0599)

导读 | 豆包AI

ONEWEB-0599是英国OneWeb公司的低轨宽带卫星,于北京时间2023年1月10日由SpaceX猎鹰9号火箭在卡纳维拉尔角发射,属于OneWeb全球低轨卫星星座组网卫星。该卫星重约148公斤,依靠太阳能供电,最终进入1200公里高度近地轨道运行,为全球偏远地区和基础设施落后区域提供低成本宽带互联网接入服务。

Basic Information
目录编号:
55155
目录名称:
ONEWEB-0599
国际标识:
2023-004R
轨道中心:
EARTH
卫星名称:
一网星座-0599星
卫星全名:
一网星座-0599星 (ONEWEB-0599)
卫星状态:
在轨 (已飞行1208 天)
发射日期:
2023-01-10 UTC
国别 :
英国 (GB)
星等 :
--
Orbit Information
数据来源 国际轨道数据 AOE轨道数据
星历时间 2026-05-02T10:00:17+0800
9小时前
查看轨道信息
2026-05-01T22:00:00+0800
21小时前
查看轨道信息
半长轴 7571.85km 7571.852km
偏心率 0.0001933 0.0001865
轨道倾角 87.918° 87.917°
近地点辐角 74.400° 73.064°
升交点赤经 15.027° 15.126°
平近点角 285.735° 75.716°
近地点 1192.249km 1192.302km
远地点 1195.177km 1195.128km
周期 109.286分钟 109.286分钟
每日圈数 13.176491 13.176488
Detailed Information
平衡模式:
三轴稳定
覆盖范围:
全球
运营商:
一网卫星公司
运营商所在国:
英国
制造商(研发单位):
一网卫星公司
制造商所在国:
英国
使用方式:
暂无
Satellite Introduction
OneWeb卫星网络由648颗重约125公斤的微型卫星组成,运行在1200公里的轨道上。 每颗卫星都能够提供至少每秒8千兆位的吞吐量,以使用其高吞吐量的Ku频段有效载荷为家庭和移动平台提供互联网接入。该卫星仍在工作。
2D Orbit Map
3D Orbit Map
Orbit Altitude Analysis Chart
Orbit Inclination Analysis Chart
Orbit Comprehensive Analysis Chart
View Comprehensive Chart